N7BDR Weather Reports


time (UTC)temp
F
wind
direction
speed
knots
gust
knots
rain 1hr
in
rain 24hr
in
rain mn
in
humidity
%
barometer
mb
20260506182350 56 335 3.5 7.8 0.00 0.17 0.16 28 1018.4
20260506181224 56 343 2.6 7.8 0.00 0.17 0.16 30 1018.3
20260506180732 56 350 3.5 7.8 0.00 0.17 0.16 30 1018.4
20260506180224 56 323 4.3 12.2 0.00 0.17 0.16 28 1018.4
20260506175730 55 315 4.3 12.2 0.00 0.17 0.16 27 1018.3
20260506175236 55 21 4.3 12.2 0.00 0.17 0.16 26 1018.3
20260506174735 55 73 4.3 12.2 0.00 0.17 0.16 23 1018.3
20260506174239 55 334 3.5 11.3 0.00 0.17 0.16 25 1018.2
20260506173729 55 329 4.3 11.3 0.00 0.17 0.16 26 1018.3
20260506173216 55 346 3.5 11.3 0.00 0.17 0.16 29 1018.2
20260506172717 55 70 2.6 9.6 0.00 0.17 0.16 29 1018.1
20260506172220 54 319 3.5 9.6 0.00 0.17 0.16 29 1018.0
20260506171721 54 324 3.5 11.3 0.00 0.17 0.16 30 1018.0
20260506171209 54 337 3.5 11.3 0.00 0.17 0.16 30 1018.0
20260506170714 54 341 3.5 11.3 0.00 0.17 0.16 30 1018.0
20260506170201 54 336 3.5 11.3 0.00 0.17 0.16 33 1017.8
20260506165654 54 358 3.5 8.7 0.00 0.17 0.16 31 1017.8
20260506165154 54 336 2.6 8.7 0.00 0.17 0.16 32 1017.6
20260506164638 54 336 3.5 7.8 0.00 0.17 0.16 34 1017.7
20260506164126 54 339 3.5 7.8 0.00 0.17 0.16 30 1017.5
20260506163626 54 77 3.5 7.8 0.00 0.17 0.16 30 1017.4
20260506163110 53 343 3.5 8.7 0.00 0.17 0.16 34 1017.4
20260506162618 53 338 4.3 8.7 0.00 0.17 0.16 34 1017.3
20260506161437 53 346 4.3 9.6 0.00 0.17 0.16 34 1017.1
20260506160921 53 343 4.3 9.6 0.00 0.17 0.16 33 1017.0
20260506160408 53 14 4.3 9.6 0.00 0.17 0.16 33 1017.0
20260506155901 53 321 4.3 8.7 0.00 0.17 0.16 32 1016.9
20260506155411 52 45 4.3 8.7 0.00 0.17 0.16 39 1016.9
20260506154904 53 358 2.6 8.7 0.00 0.17 0.16 39 1016.7
20260506154354 52 339 2.6 10.4 0.00 0.17 0.16 39 1016.6
20260506153855 52 324 3.5 10.4 0.00 0.17 0.16 38 1016.6
20260506153346 51 326 4.3 10.4 0.00 0.17 0.16 38 1016.5
20260506152836 52 350 4.3 10.4 0.00 0.17 0.16 40 1016.5
20260506152321 51 335 4.3 8.7 0.00 0.17 0.16 39 1016.5
20260506151815 52 20 3.5 10.4 0.00 0.17 0.16 40 1016.4
20260506151302 52 352 4.3 10.4 0.00 0.17 0.16 40 1016.4
20260506150118 51 348 4.3 10.4 0.00 0.17 0.16 38 1016.2
20260506145604 52 343 2.6 7.8 0.00 0.17 0.16 38 1016.1
20260506145111 52 315 2.6 7.0 0.00 0.17 0.16 46 1015.8
20260506144612 52 341 2.6 7.0 0.00 0.17 0.16 45 1015.9
20260506144100 51 337 2.6 6.1 0.00 0.17 0.16 49 1015.9
20260506143547 51 327 3.5 6.1 0.00 0.17 0.16 49 1015.9
20260506143046 51 329 2.6 6.1 0.00 0.17 0.16 48 1015.7
20260506142531 51 324 1.7 5.2 0.00 0.17 0.16 48 1015.8
20260506142036 51 330 0.9 3.5 0.00 0.17 0.16 51 1015.6
20260506141522 50 334 0.9 3.5 0.00 0.17 0.16 49 1015.5
20260506141024 50 322 0.0 3.5 0.00 0.17 0.16 51 1015.4
20260506140527 50 334 0.0 0.0 0.00 0.17 0.16 54 1015.5
20260506134731 48 334 0.0 0.0 0.00 0.17 0.16 57 1015.4
20260506133619 46 328 0.0 0.0 0.00 0.17 0.16 65 1015.3
20260506133127 45 328 0.0 0.0 0.00 0.17 0.16 68 1015.2
20260506132626 44 328 0.0 0.0 0.00 0.17 0.16 71 1015.1
20260506131452 42 290 0.0 0.0 0.00 0.17 0.16 75 1014.7
20260506130936 42 294 0.0 0.0 0.00 0.17 0.16 75 1014.5
20260506130418 41 296 0.0 0.0 0.00 0.17 0.16 75 1014.5
20260506125305 40 266 0.0 0.0 0.00 0.17 0.16 76 1014.1
20260506124750 41 269 0.0 0.0 0.00 0.17 0.16 75 1014.1
20260506124248 41 270 0.0 0.0 0.00 0.17 0.16 74 1014.1
20260506123736 41 270 0.0 0.0 0.00 0.17 0.16 72 1013.9
20260506123241 41 270 0.0 0.0 0.00 0.17 0.16 71 1013.8
20260506122728 42 270 0.0 0.0 0.00 0.17 0.16 70 1013.8
20260506115649 44 268 0.0 0.0 0.00 0.17 0.16 65 1013.5
20260506114524 44 269 0.0 0.0 0.00 0.17 0.16 65 1013.5
20260506114007 44 239 0.0 0.0 0.00 0.17 0.16 64 1013.4
20260506112824 44 267 0.0 2.6 0.00 0.17 0.16 65 1013.4
20260506111654 44 265 0.0 0.0 0.00 0.17 0.16 64 1013.2
20260506111140 44 265 0.0 0.0 0.00 0.17 0.16 63 1013.1
20260506110639 44 222 0.0 5.2 0.00 0.17 0.16 62 1013.2
20260506110134 44 353 0.0 5.2 0.00 0.17 0.16 62 1013.2
20260506105637 44 197 0.9 8.7 0.00 0.17 0.16 61 1013.0
20260506105121 44 89 1.7 8.7 0.00 0.17 0.16 62 1013.1
20260506104001 45 67 2.6 11.3 0.00 0.17 0.16 60 1013.2
20260506103452 45 35 3.5 11.3 0.00 0.17 0.16 60 1013.0
20260506103002 45 14 2.6 11.3 0.00 0.18 0.16 60 1013.0
20260506102507 45 121 1.7 10.4 0.00 0.18 0.16 61 1012.9
20260506102006 45 78 1.7 7.8 0.00 0.18 0.16 60 1012.8
20260506100829 45 168 0.9 8.7 0.00 0.18 0.16 63 1012.7
20260506100315 45 80 0.9 8.7 0.00 0.18 0.16 63 1012.4
20260506095808 44 81 0.9 8.7 0.00 0.18 0.16 65 1012.3
20260506095248 44 61 0.9 7.0 0.00 0.18 0.16 67 1012.1
20260506094757 44 116 0.9 7.0 0.00 0.18 0.16 66 1012.1
20260506094250 44 38 1.7 7.0 0.00 0.18 0.16 68 1011.7
20260506093747 44 22 1.7 7.0 0.00 0.18 0.16 70 1011.7
20260506093251 44 17 0.9 7.0 0.00 0.18 0.16 70 1011.6
20260506092124 43 4 1.7 6.1 0.00 0.18 0.16 74 1011.4
20260506091622 43 101 0.9 6.1 0.00 0.18 0.16 78 1011.2
20260506091114 42 116 0.9 6.1 0.00 0.18 0.16 80 1011.2
20260506090605 42 156 0.9 6.1 0.04 0.18 0.16 83 1011.0
20260506090115 42 68 0.9 6.1 0.05 0.18 0.16 83 1011.0
20260506085620 42 133 0.9 6.1 0.09 0.18 0.16 84 1010.8
20260506085116 42 99 0.9 6.1 0.09 0.16 0.16 84 1010.9
20260506084601 43 221 0.9 8.7 0.12 0.16 0.15 84 1010.8
20260506084107 43 82 0.9 8.7 0.20 0.16 0.13 83 1010.4
20260506083613 44 30 2.6 14.8 0.38 0.14 0.13 81 1010.3
20260506083111 45 119 3.5 14.8 0.25 0.11 0.10 78 1010.1
20260506082555 47 357 4.3 14.8 0.74 0.08 0.08 74 1009.8
20260506082050 51 80 1.7 14.8 0.63 0.03 0.02 71 1009.6
20260506081552 52 334 0.0 4.3 0.00 0.02 0.00 74 1009.0
20260506080411 52 178 0.0 0.0 0.00 0.02 0.00 73 1008.2
20260506073257 52 249 0.0 0.0 0.00 0.02 0.00 69 1008.2
20260506072806 52 249 0.0 0.0 0.00 0.02 0.00 69 1008.1
20260506072250 52 275 0.0 1.7 0.00 0.02 0.00 69 1008.1
20260506071759 53 301 0.0 0.0 0.00 0.02 0.00 68 1008.3
20260506070640 53 204 0.0 0.9 0.00 0.02 0.00 67 1008.2
20260506062137 54 268 0.0 0.0 0.00 0.02 0.00 59 1007.7
20260506061640 54 288 1.7 4.3 0.00 0.02 0.00 59 1007.6
20260506061141 54 264 0.9 4.3 0.00 0.02 0.00 59 1007.5
20260506060647 54 261 0.0 3.5 0.00 0.02 0.00 60 1007.4
20260506060152 54 281 0.0 0.0 0.00 0.02 0.00 62 1007.3
20260506051325 54 315 0.0 0.0 0.00 0.02 0.02 61 1006.7
20260506050833 55 314 0.0 0.0 0.00 0.02 0.02 58 1006.7
20260506050334 55 335 0.0 0.0 0.00 0.02 0.02 56 1006.9
20260506044805 55 270 0.9 6.1 0.00 0.02 0.02 54 1006.1
20260506044305 54 252 0.0 6.1 0.00 0.02 0.02 54 1006.0
20260506043815 54 277 0.0 6.1 0.00 0.02 0.02 55 1006.1
20260506043315 54 266 0.9 6.1 0.00 0.02 0.02 55 1006.0
20260506042814 54 238 1.7 5.2 0.00 0.02 0.02 54 1005.9
20260506041628 54 189 0.9 4.3 0.00 0.02 0.02 54 1006.0
20260506034616 55 265 1.7 9.6 0.00 0.02 0.02 54 1005.7
20260506034100 55 279 1.7 9.6 0.00 0.02 0.02 54 1005.8
20260506033608 55 267 1.7 5.2 0.00 0.02 0.02 54 1005.8
20260506033055 55 243 0.9 7.0 0.00 0.02 0.02 53 1005.7
20260506032603 55 246 1.7 7.0 0.00 0.02 0.02 53 1005.6
20260506032103 55 240 1.7 7.0 0.00 0.02 0.02 53 1005.4
20260506031603 55 265 1.7 7.0 0.00 0.02 0.02 53 1005.3
20260506031100 56 170 1.7 6.1 0.00 0.02 0.02 52 1005.3
20260506030542 56 165 1.7 6.1 0.00 0.02 0.02 52 1005.2
20260506030043 56 153 1.7 6.1 0.00 0.02 0.02 52 1005.1
20260506025530 56 253 0.9 4.3 0.00 0.02 0.02 52 1005.2
20260506025012 56 244 0.9 6.1 0.00 0.02 0.02 51 1005.1
20260506023851 57 208 1.7 6.1 0.00 0.02 0.02 50 1004.9
20260506023356 57 234 0.9 6.1 0.00 0.02 0.02 50 1004.9
20260506022845 58 227 0.9 4.3 0.00 0.02 0.02 49 1004.7
20260506022353 58 194 1.7 6.1 0.00 0.02 0.02 49 1004.7
20260506021848 58 244 1.7 6.1 0.00 0.02 0.02 49 1004.6
20260506021339 59 227 1.7 7.8 0.00 0.02 0.02 48 1004.5
20260506020237 59 268 0.9 7.8 0.00 0.02 0.02 49 1004.4
20260506015733 59 185 1.7 7.0 0.00 0.02 0.02 48 1004.3
20260506015242 59 209 1.7 7.0 0.00 0.02 0.02 48 1004.3
20260506014735 60 258 1.7 7.0 0.00 0.02 0.02 48 1004.3
20260506013605 60 265 1.7 5.2 0.00 0.02 0.02 47 1004.5
20260506013053 60 258 1.7 5.2 0.00 0.02 0.02 47 1004.5
20260506012554 60 266 1.7 5.2 0.00 0.02 0.02 47 1004.4
20260506012034 60 172 0.9 6.1 0.00 0.02 0.02 47 1004.4
20260506011542 60 257 1.7 6.1 0.00 0.02 0.02 47 1004.4
20260506011037 60 200 1.7 7.0 0.00 0.02 0.02 47 1004.4
20260506010539 60 176 2.6 7.0 0.00 0.02 0.02 46 1004.4
20260506010047 60 275 1.7 8.7 0.00 0.02 0.02 46 1004.3
20260506005541 60 194 1.7 8.7 0.00 0.02 0.02 47 1004.3
20260506005039 60 209 2.6 8.7 0.00 0.02 0.02 46 1004.3
20260506004525 60 254 2.6 8.7 0.00 0.02 0.02 46 1004.3
20260506004027 61 273 0.9 5.2 0.00 0.02 0.02 46 1004.3
20260506002244 61 197 1.7 4.3 0.00 0.02 0.02 47 1004.3
20260506001739 61 270 0.9 4.3 0.00 0.02 0.02 46 1004.4
20260506001228 61 223 0.9 7.0 0.00 0.02 0.02 46 1004.5
20260506000735 61 236 1.7 7.0 0.00 0.02 0.02 46 1004.4
20260505235606 60 263 0.9 5.2 0.00 0.02 0.02 47 1004.5
20260505235100 60 249 1.7 5.2 0.00 0.02 0.02 48 1004.4
20260505234552 60 227 1.7 6.1 0.00 0.02 0.02 47 1004.5
20260505234042 60 181 1.7 6.1 0.00 0.02 0.02 49 1004.5
20260505232919 60 193 1.7 7.0 0.00 0.02 0.02 49 1004.5
20260505231737 60 268 1.7 7.8 0.00 0.02 0.02 49 1004.6
20260505231227 60 206 2.6 7.8 0.00 0.02 0.02 49 1004.7
20260505230722 60 173 1.7 6.1 0.00 0.02 0.02 51 1004.8
20260505230228 59 181 2.6 6.1 0.00 0.02 0.02 53 1004.8
20260505225721 59 242 2.6 6.1 0.00 0.02 0.02 53 1004.8
20260505224605 58 222 1.7 5.2 0.00 0.02 0.02 53 1005.0
20260505224106 58 181 1.7 6.1 0.00 0.02 0.02 56 1005.0
20260505223601 58 155 1.7 6.1 0.00 0.02 0.02 55 1005.1
20260505223055 57 265 1.7 6.1 0.00 0.02 0.02 59 1005.2
20260505222602 57 242 0.9 6.1 0.00 0.02 0.02 57 1005.2
20260505221444 55 237 0.9 3.5 0.00 0.02 0.02 64 1005.1
20260505220951 55 254 0.9 3.5 0.00 0.02 0.02 64 1005.2
20260505220430 55 269 0.9 3.5 0.00 0.02 0.02 62 1005.2
20260505215926 56 249 0.0 3.5 0.00 0.02 0.02 61 1005.3
20260505215413 56 310 0.0 3.5 0.00 0.01 0.01 61 1005.4
20260505214915 57 155 0.0 3.5 0.00 0.01 0.01 60 1005.6
20260505214417 57 245 0.0 3.5 0.00 0.01 0.01 55 1005.6
20260505213928 58 243 0.0 0.0 0.00 0.01 0.01 53 1005.5
20260505213416 58 111 0.0 0.0 0.00 0.01 0.01 51 1005.7
20260505212902 58 106 0.0 0.0 0.00 0.01 0.01 46 1005.7
20260505211732 58 249 0.0 3.5 0.00 0.01 0.01 47 1005.7
20260505211222 58 232 0.0 7.8 0.00 0.01 0.01 47 1005.6
20260505210714 58 275 0.9 7.8 0.00 0.01 0.01 48 1005.5
20260505210207 58 223 2.6 7.8 0.00 0.01 0.01 46 1005.4
20260505205031 58 148 2.6 8.7 0.00 0.01 0.01 46 1005.4
20260505204517 58 235 1.7 8.7 0.00 0.01 0.01 47 1005.3
20260505202746 57 250 3.5 8.7 0.00 0.01 0.01 49 1005.3
20260505202250 57 234 2.6 8.7 0.00 0.01 0.01 48 1005.4
20260505201747 57 166 2.6 11.3 0.00 0.01 0.01 49 1005.4
20260505201233 57 204 3.5 11.3 0.00 0.01 0.01 48 1005.3
20260505200126 57 262 2.6 11.3 0.00 0.01 0.01 49 1005.3
20260505195636 57 164 2.6 10.4 0.00 0.01 0.01 50 1005.3
20260505195145 57 167 2.6 10.4 0.00 0.01 0.01 49 1005.3
20260505194039 57 265 3.5 10.4 0.00 0.01 0.01 50 1005.2
20260505193528 57 196 3.5 9.6 0.00 0.01 0.01 49 1005.2
20260505193028 57 209 3.5 10.4 0.00 0.01 0.01 50 1005.2
20260505192527 57 218 2.6 10.4 0.00 0.01 0.01 50 1005.3
20260505192026 57 256 3.5 10.4 0.00 0.01 0.01 50 1005.3
20260505191533 57 185 3.5 10.4 0.00 0.01 0.01 49 1005.3
20260505191038 57 211 2.6 9.6 0.00 0.01 0.01 49 1005.2
20260505190538 57 197 2.6 8.7 0.00 0.01 0.01 50 1005.1
20260505190022 57 239 3.5 10.4 0.00 0.01 0.01 51 1005.0
20260505185517 56 246 2.6 10.4 0.00 0.01 0.01 51 1005.0
20260505185016 56 224 3.5 10.4 0.00 0.01 0.01 52 1005.0
20260505184515 56 254 3.5 10.4 0.00 0.01 0.01 52 1005.1
20260505184021 56 228 4.3 13.0 0.00 0.01 0.01 52 1005.1
20260505182859 56 197 5.2 15.6 0.00 0.01 0.01 52 1005.0